This is the latest recevied weather packets stored in our database for station/object KF7SOJ. If no packets are shown the sender has not sent any weather packets the latest 10 day(s).
| Time | Temp. | Humidity | Pressure | Rain* | Wind** | Luminosity | Snow |
|---|---|---|---|---|---|---|---|
| 1788047496 | 28.89° C | 27% | 926.1 hPa | 0 mm | - | 290 W/m² | - |
| 1788047191 | 27.78° C | 28% | 926.1 hPa | 0 mm | - | 299 W/m² | - |
| 1788046886 | 27.78° C | 27% | 926.4 hPa | 0 mm | - | 105 W/m² | - |
| 1788046585 | 28.89° C | 27% | 926.3 hPa | 0 mm | - | 122 W/m² | - |
| 1788046280 | 28.89° C | 27% | 926.4 hPa | 0 mm | - | 357 W/m² | - |
| 1788045979 | 28.89° C | 27% | 926.5 hPa | 0 mm | - | 311 W/m² | - |
| 1788045674 | 29.44° C | 27% | 926.5 hPa | 0 mm | - | 380 W/m² | - |
| 1788045374 | 28.89° C | 27% | 926.3 hPa | 0 mm | - | 386 W/m² | - |
| 1788045069 | 28.89° C | 27% | 926.4 hPa | 0 mm | - | 405 W/m² | - |
| 1788044769 | 28.89° C | 28% | 926.4 hPa | 0 mm | - | 430 W/m² | - |
| 1788044464 | 29.44° C | 27% | 926.4 hPa | 0 mm | - | 451 W/m² | - |
| 1788044163 | 29.44° C | 28% | 926.5 hPa | 0 mm | - | 484 W/m² | - |
| 1788043859 | 29.44° C | 27% | 926.4 hPa | 0 mm | - | 539 W/m² | - |
| 1788043560 | 28.89° C | 28% | 926.6 hPa | 0 mm | - | 519 W/m² | - |
| 1788043260 | 28.33° C | 29% | 926.7 hPa | 0 mm | - | 519 W/m² | - |
| 1788042955 | 28.89° C | 28% | 926.6 hPa | 0 mm | - | 304 W/m² | - |
| 1788042650 | 28.89° C | 29% | 926.7 hPa | 0 mm | - | 571 W/m² | - |
| 1788042349 | 28.33° C | 30% | 926.6 hPa | 0 mm | - | 525 W/m² | - |
| 1788042044 | 28.89° C | 29% | 926.8 hPa | 0 mm | - | 409 W/m² | - |
| 1788041740 | 28.33° C | 30% | 926.8 hPa | 0 mm | - | 625 W/m² | - |
| 1788041435 | 28.33° C | 30% | 926.7 hPa | 0 mm | - | 301 W/m² | - |
| 1788041134 | 27.78° C | 31% | 926.9 hPa | 0 mm | - | 631 W/m² | - |
| 1788040829 | 28.33° C | 29% | 927 hPa | 0 mm | - | 452 W/m² | - |
| 1788040522 | 27.78° C | 31% | 927.3 hPa | 0 mm | - | 619 W/m² | - |
| 1788040219 | 27.78° C | 31% | 927.1 hPa | 0 mm | - | 507 W/m² | - |
* Rain latest hour (hover to see other rain measurements)
** Current wind speed in m/s (hover to see current wind gust speed)